Weather History for Opa Locka, FL

Change the Weather History Date:

Saturday, July 20, 2013

  Actual Average Record
Temperature  
Mean Temperature 84 °F -  
Max Temperature 90 °F 89 °F 93 °F (1985)
Min Temperature 78 °F 76 °F 68 °F (1987)
Cooling Degree Days 18    
Growing Degree Days 34 (Base 50)    
Moisture  
Dew Point 75 °F    
Average Humidity 80    
Maximum Humidity 100    
Minimum Humidity 61    
Precipitation  
Precipitation 0.16 in - - ()
Sea Level Pressure  
Sea Level Pressure 30.08 in    
Wind  
Wind Speed 8 mph (SE)    
Max Wind Speed 24 mph    
Max Gust Speed 37 mph    
Visibility 10 miles    
Events Rain    
Averages and records for this station are not official NWS values.
T = Trace of Precipitation, MM = Missing Value Source: NWS Daily Summary

Daily Weather History Graph

Daily Weather History Graph

Search for Another Location

Airport:

Trip Planner

Search our weather history database for the weather conditions in past years. The results will help you decide how hot, cold, wet, or windy it might be!

Date:

Astronomy

Jul. 20, 2013 Rise Set
Actual Time 6:41 AM EDT 8:13 PM EDT
Civil Twilight 6:16 AM EDT 8:38 PM EDT
Nautical Twilight 5:45 AM EDT 9:08 PM EDT
Astronomical Twilight 5:14 AM EDT 9:40 PM EDT
Moon 6:16 PM EDT (7/20) 4:19 AM EDT (7/20)
Length of Visible Light 14h 22m
Length of Day
13h 31m
Waxing Gibbous, 93% of the Moon is Illuminated
Jul 20
Waxing Gibbous
Jul 22
Full
Jul 29
Last Quarter
Aug 6
New
Aug 14
First Quarter

Hourly Weather History & Observations

Time (EDT) Temp. Heat Index Dew Point Humidity Pressure Visibility Wind Dir Wind Speed Gust Speed Precip Events Conditions
12:53 AM 80.1 °F 85.8 °F 77.0 °F 90% 30.10 in 10.0 mi East 4.6 mph - N/A   Partly Cloudy
1:53 AM 80.1 °F 85.8 °F 77.0 °F 90% 30.09 in 10.0 mi ESE 6.9 mph - N/A   Clear
2:53 AM 79.0 °F - 77.0 °F 94% 30.06 in 10.0 mi East 3.5 mph - N/A   Clear
3:53 AM 79.0 °F - 77.0 °F 94% 30.05 in 10.0 mi East 3.5 mph - N/A   Clear
4:32 AM 78.8 °F - 77.0 °F 94% 30.06 in 6.0 mi SE 17.3 mph 20.7 mph 0.10 in Rain Light Rain
4:51 AM 78.8 °F - 75.2 °F 89% 30.06 in 10.0 mi ESE 6.9 mph - 0.14 in   Mostly Cloudy
4:53 AM 79.0 °F - 75.9 °F 90% 30.06 in 10.0 mi ESE 6.9 mph - 0.14 in Rain Light Rain
5:53 AM 79.0 °F - 79.0 °F 100% 30.06 in 10.0 mi East 4.6 mph - 0.02 in   Scattered Clouds
6:53 AM 79.0 °F - 79.0 °F 100% 30.07 in 10.0 mi ESE 5.8 mph - N/A   Scattered Clouds
7:53 AM 80.1 °F 86.4 °F 78.1 °F 94% 30.08 in 10.0 mi ESE 3.5 mph - N/A   Partly Cloudy
8:53 AM 82.9 °F 91.8 °F 77.0 °F 82% 30.09 in 10.0 mi SSE 8.1 mph - N/A   Partly Cloudy
9:53 AM 86.0 °F 96.9 °F 77.0 °F 74% 30.11 in 10.0 mi South 10.4 mph - N/A   Partly Cloudy
10:53 AM 84.9 °F 93.3 °F 75.0 °F 72% 30.12 in 10.0 mi South 11.5 mph - N/A   Mostly Cloudy
11:00 AM 86.0 °F 95.1 °F 75.2 °F 70% 30.11 in 10.0 mi South 10.4 mph - N/A   Scattered Clouds
11:34 AM 86.0 °F 96.9 °F 77.0 °F 74% 30.11 in 10.0 mi South 13.8 mph - 0.00 in Rain Light Rain
11:53 AM 86.0 °F 96.0 °F 75.9 °F 72% 30.11 in 10.0 mi SSE 13.8 mph - 0.00 in   Mostly Cloudy
12:53 PM 89.1 °F 100.2 °F 75.9 °F 65% 30.12 in 10.0 mi SSE 17.3 mph - N/A   Mostly Cloudy
1:00 PM 86.0 °F 93.4 °F 73.4 °F 66% 30.12 in 10.0 mi SSE 24.2 mph 36.8 mph N/A   Mostly Cloudy
1:53 PM 84.9 °F 89.4 °F 70.0 °F 61% 30.10 in 10.0 mi SSE 13.8 mph - N/A   Scattered Clouds
2:53 PM 88.0 °F 95.6 °F 73.0 °F 61% 30.06 in 10.0 mi SSE 13.8 mph - N/A   Clear
3:53 PM 87.1 °F 97.3 °F 75.9 °F 69% 30.06 in 10.0 mi South 13.8 mph - N/A   Partly Cloudy
4:53 PM 84.9 °F 94.1 °F 75.9 °F 74% 30.07 in 10.0 mi South 12.7 mph - N/A   Partly Cloudy
5:53 PM 84.0 °F 92.6 °F 75.9 °F 76% 30.06 in 10.0 mi South 9.2 mph - N/A   Scattered Clouds
6:53 PM 82.9 °F 90.2 °F 75.0 °F 77% 30.07 in 10.0 mi South 3.5 mph - N/A   Clear
7:53 PM 81.0 °F 84.1 °F 69.1 °F 67% 30.06 in 10.0 mi Calm Calm - N/A   Mostly Cloudy
8:53 PM 79.0 °F - 73.9 °F 84% 30.07 in 10.0 mi Calm Calm - N/A   Partly Cloudy
9:48 PM 80.6 °F 85.4 °F 73.4 °F 79% 30.09 in 10.0 mi Calm Calm - N/A   Mostly Cloudy
9:53 PM 80.1 °F 84.2 °F 73.0 °F 79% 30.09 in 10.0 mi Calm Calm - N/A   Mostly Cloudy
10:04 PM 80.6 °F 85.4 °F 73.4 °F 79% 30.10 in 10.0 mi Calm Calm - N/A   Scattered Clouds
10:53 PM 80.1 °F 85.1 °F 75.0 °F 85% 30.11 in 10.0 mi SSE 3.5 mph - N/A   Partly Cloudy
11:53 PM 81.0 °F 88.6 °F 78.1 °F 91% 30.11 in 10.0 mi SSE 9.2 mph - N/A   Clear